[[{"header":{"parameterUnit":"m.s-1","parameterCategory":1,"la1":30.2991,"la2":30.254,"lo1":-89.0895,"lo2":-89.0444,"dy":0.0017,"dx":0.0017,"nx":28,"ny":28,"refTime":"2023-10-29T21:00:00:Z","depth":0,"parameterNumber":2,"parameterNumberName":"U-component_of_WINDS"},"data":[0,0,0,0,0,0,0,0,0,0,0,0,0,0,0,0,0,0,0,0,0,0,0,0,0,0,0,0,0,0,0,0,0,0,0,0,0,0,0,0,0,0,0,0,0,0,0,0,0,0,0,0,0,0,0,0,0,0,-1.3195,-1.3195,0,-1.3177,-1.3177,-1.3177,-1.313,-1.3129,-1.3128,-1.3127,-1.311,-1.3111,-1.3111,0,0,0,0,0,0,0,0,0,0,0,0,0,-1.3191,-1.3191,-1.3195,-1.3195,-1.3195,-1.3177,-1.3177,-1.3177,-1.3131,-1.3129,-1.3128,-1.3127,-1.311,-1.3111,-1.3111,0,0,0,0,0,0,0,0,0,0,0,0,0,-1.3185,-1.3191,-1.3195,-1.317,-1.3167,-1.3178,-1.3177,-1.3177,-1.3131,-1.3129,-1.3128,-1.3126,-1.311,-1.3111,-1.3112,-1.3146,0,0,-1.3114,-1.3114,0,0,0,0,0,0,0,0,-1.3185,-1.3185,-1.3174,-1.3171,-1.3169,-1.3155,-1.3169,-1.3167,-1.3131,-1.3145,-1.3127,-1.3126,-1.3126,-1.3126,-1.3126,-1.3145,-1.3144,-1.3114,-1.3114,-1.3115,-1.3115,0,0,0,0,0,0,0,-1.3186,-1.3186,-1.3188,-1.3174,-1.3171,-1.3159,-1.3157,-1.3169,-1.3144,-1.3143,-1.314,-1.3138,-1.3125,-1.3125,-1.3125,-1.3144,-1.3114,-1.3114,-1.3115,-1.3115,-1.3191,-1.3192,0,0,0,0,0,0,-1.319,-1.3186,-1.3189,-1.3188,-1.3173,-1.3161,-1.3158,-1.3161,-1.3144,-1.314,-1.314,-1.3136,-1.3125,-1.3124,-1.3124,-1.3163,-1.3115,-1.3115,-1.3116,-1.3189,-1.3191,-1.3193,0,0,0,0,0,0,-1.319,-1.319,-1.319,-1.3186,-1.3185,-1.3162,-1.3166,-1.3161,-1.3161,-1.3141,-1.3137,-1.3144,-1.3123,-1.3123,-1.3141,-1.3162,-1.3116,-1.3116,-1.3187,-1.319,-1.3192,-1.3241,0,0,0,0,0,0,-1.319,-1.3191,-1.3203,-1.3187,-1.3186,-1.3206,-1.3167,-1.3162,-1.3162,-1.3158,-1.3144,-1.3141,-1.3122,-1.314,-1.3141,-1.3162,-1.3117,-1.3185,-1.3188,-1.3191,-1.3237,-1.3244,-1.3251,0,0,0,0,0,-1.319,-1.3218,-1.3204,-1.3205,-1.32,-1.3207,-1.3207,-1.3184,-1.3164,-1.3177,-1.3164,-1.3141,-1.3159,-1.3142,-1.3143,-1.3164,-1.3184,-1.3187,-1.3191,-1.3234,-1.3243,-1.3251,0,0,0,0,0,0,-1.3238,-1.3215,-1.32,-1.3223,-1.3217,-1.3199,-1.3214,-1.3195,-1.3195,-1.3191,-1.3164,-1.3161,-1.3182,-1.3175,-1.3156,-1.3197,-1.3168,-1.3172,-1.32,-1.3209,-1.3215,-1.3216,-1.3117,0,0,0,0,0,-1.3251,-1.3258,-1.3238,-1.3261,-1.3259,-1.3237,-1.324,-1.3223,-1.3216,-1.3214,-1.3202,-1.3197,-1.3201,-1.3205,-1.3208,-1.3236,-1.3232,-1.3251,-1.3258,-1.3264,-1.3267,-1.3282,-1.329,-1.3204,-1.3204,-1.3204,0,0,-1.3279,-1.3267,-1.3273,-1.327,-1.3264,-1.3272,-1.3236,-1.3246,-1.3252,-1.3215,-1.3231,-1.3222,-1.3215,-1.3238,-1.3247,-1.3232,-1.329,-1.3268,-1.3273,-1.3273,-1.3286,-1.3294,-1.3301,-1.3207,-1.3206,-1.3206,0,0,-1.3333,-1.3325,-1.3343,-1.3337,-1.3328,-1.3313,-1.3318,-1.3303,-1.3296,-1.3311,-1.3284,-1.3291,-1.3299,-1.3294,-1.3293,-1.3346,-1.3325,-1.3348,-1.3383,-1.3398,-1.3404,-1.341,-1.3429,-1.3436,-1.3352,-1.3352,-1.3352,0,-1.3368,-1.3379,-1.3355,-1.3366,-1.3366,-1.3333,-1.3351,-1.3347,-1.334,-1.334,-1.3324,-1.3333,-1.3326,-1.3347,-1.336,-1.3361,-1.3365,-1.3349,-1.3405,-1.3411,-1.3416,-1.3433,-1.344,-1.3355,-1.3355,-1.3354,-1.3354,0,-1.3423,-1.3431,-1.3446,-1.3439,-1.344,-1.3455,-1.3434,-1.3438,-1.3422,-1.341,-1.3425,-1.3416,-1.3416,-1.342,-1.3404,-1.3439,-1.343,-1.341,-1.338,-1.3427,-1.3443,-1.3449,-1.3359,-1.3358,-1.3357,-1.3356,0,0,-1.3505,-1.3485,-1.3491,-1.3487,-1.3475,-1.3481,-1.3495,-1.3494,-1.3499,-1.3495,-1.3506,-1.3514,-1.3495,-1.3494,-1.3477,-1.349,-1.3532,-1.3468,-1.3468,-1.348,-1.357,-1.3584,-1.3592,-1.3519,-1.352,-1.3521,-1.357,0,-1.3556,-1.3577,-1.3556,-1.3582,-1.3589,-1.3558,-1.357,-1.3564,-1.3553,-1.3558,-1.3546,-1.3552,-1.3527,-1.3526,-1.3537,-1.3525,-1.355,-1.3521,-1.3528,-1.3529,-1.353,-1.3601,-1.3616,-1.3663,-1.3576,-1.3577,-1.3578,0,-1.3617,-1.3615,-1.3642,-1.3628,-1.363,-1.3641,-1.3639,-1.3644,-1.3637,-1.3628,-1.3627,-1.3607,-1.362,-1.3592,-1.3609,-1.359,-1.3592,-1.3586,-1.3588,-1.3587,-1.3555,-1.3601,-1.3678,-1.3684,-1.3587,-1.3587,-1.3586,0,-1.3674,-1.3679,-1.3695,-1.3693,-1.3677,-1.3685,-1.3679,-1.3671,-1.3672,-1.3671,-1.3671,-1.3672,-1.3672,-1.3673,-1.3654,-1.3636,-1.3674,-1.3644,-1.3667,-1.3667,-1.3675,-1.3675,-1.3753,-1.3678,-1.3678,-1.3678,-1.3678,0,-1.3732,-1.3749,-1.372,-1.373,-1.3749,-1.3725,-1.3744,-1.3735,-1.3727,-1.3735,-1.3709,-1.3718,-1.3692,-1.3698,-1.3683,-1.37,-1.37,-1.3693,-1.3689,-1.3695,-1.3696,-1.3695,-1.3691,-1.368,-1.3679,-1.3679,-1.3679,0,-1.3798,-1.3779,-1.3795,-1.3779,-1.3775,-1.3789,-1.3776,-1.3784,-1.3772,-1.3782,-1.3783,-1.3764,-1.3769,-1.375,-1.3753,-1.3743,-1.3767,-1.3758,-1.3769,-1.3766,-1.3789,-1.3787,-1.3869,-1.3878,-1.3799,-1.3799,-1.38,0,-1.3836,-1.3848,-1.3833,-1.3836,-1.3831,-1.3837,-1.3838,-1.3815,-1.3818,-1.381,-1.382,-1.3823,-1.3824,-1.3834,-1.382,-1.3822,-1.3812,-1.3841,-1.3812,-1.3818,-1.3812,-1.3811,-1.3812,-1.3847,-1.3847,-1.3848,-1.3849,0,-1.3904,-1.3895,-1.3897,-1.3896,-1.3898,-1.3896,-1.3893,-1.3897,-1.3873,-1.3877,-1.3881,-1.3882,-1.3885,-1.3888,-1.3887,-1.3881,-1.3861,-1.3858,-1.3863,-1.3869,-1.3875,-1.3871,-1.3784,-1.3856,-1.3855,-1.3855,-1.3855,-1.3854,-1.3957,-1.3966,-1.3957,-1.396,-1.3956,-1.3953,-1.396,-1.3949,-1.3952,-1.3952,-1.3938,-1.3946,-1.3939,-1.3935,-1.3931,-1.3937,-1.3924,-1.3931,-1.3933,-1.3935,-1.3939,-1.3875,-1.3937,-1.3936,-1.3936,-1.3936,-1.3936,0,-1.4023,-1.4016,-1.4019,-1.4015,-1.4018,-1.3999,-1.3995,-1.3998,-1.4005,-1.4,-1.4001,-1.4007,-1.401,-1.3997,-1.3998,-1.4005,-1.3996,-1.4006,-1.4005,-1.4004,-1.3951,-1.3946,-1.4014,-1.4014,-1.4014,-1.4014,-1.4014,-1.4014,-1.4058,-1.4073,-1.4063,-1.4075,-1.4067,-1.4074,-1.4073,-1.4071,-1.4066,-1.4074,-1.4076,-1.4067,-1.4059,-1.4059,-1.4061,-1.4058,-1.4059,-1.4072,-1.4065,-1.4015,-1.4008,-1.4001,-1.3996,-1.4073,-1.4073,-1.4118,-1.4118,-1.4118]},{"header":{"parameterUnit":"m.s-1","parameterCategory":1,"la1":30.2991,"la2":30.254,"lo1":-89.0895,"lo2":-89.0444,"dy":0.0017,"dx":0.0017,"nx":28,"ny":28,"refTime":"2023-10-29T21:00:00:Z","depth":0,"parameterNumber":3,"parameterNumberName":"V-component_of_WINDS"},"data":[0,0,0,0,0,0,0,0,0,0,0,0,0,0,0,0,0,0,0,0,0,0,0,0,0,0,0,0,0,0,0,0,0,0,0,0,0,0,0,0,0,0,0,0,0,0,0,0,0,0,0,0,0,0,0,0,0,0,1.0151,1.0151,0,1.0204,1.0204,1.0205,1.022,1.0219,1.0219,1.0219,1.0271,1.0273,1.0274,0,0,0,0,0,0,0,0,0,0,0,0,0,1.0061,1.0062,1.0151,1.0151,1.0152,1.0204,1.0204,1.0205,1.022,1.0219,1.0219,1.0219,1.0271,1.0273,1.0275,0,0,0,0,0,0,0,0,0,0,0,0,0,1.0105,1.0063,1.0151,1.0166,1.0168,1.0204,1.0204,1.0205,1.022,1.0219,1.0219,1.0219,1.027,1.0272,1.0275,1.0299,0,0,1.0282,1.0284,0,0,0,0,0,0,0,0,1.0103,1.0109,1.0163,1.0165,1.0167,1.0205,1.0192,1.0237,1.022,1.02,1.0219,1.0218,1.0249,1.0253,1.0264,1.0301,1.0304,1.0283,1.0284,1.0285,1.0286,0,0,0,0,0,0,0,1.01,1.0106,1.0172,1.0164,1.0166,1.0169,1.0175,1.02,1.0226,1.0202,1.0203,1.0209,1.025,1.0262,1.0266,1.0304,1.0283,1.0285,1.0286,1.0287,1.0365,1.0365,0,0,0,0,0,0,1.0094,1.0104,1.017,1.0173,1.0133,1.0171,1.0178,1.0193,1.0226,1.0231,1.0209,1.021,1.0258,1.0263,1.0267,1.0299,1.0285,1.0288,1.0289,1.0364,1.0365,1.0366,0,0,0,0,0,0,1.0092,1.01,1.0168,1.0139,1.0148,1.0173,1.019,1.0194,1.0206,1.0232,1.0237,1.0217,1.0258,1.0264,1.0291,1.0301,1.0289,1.0291,1.0364,1.0364,1.0365,1.036,0,0,0,0,0,0,1.009,1.0099,1.0109,1.0139,1.0149,1.0191,1.0191,1.0196,1.021,1.0211,1.024,1.0244,1.0258,1.0288,1.0294,1.0304,1.0293,1.0363,1.0364,1.0365,1.036,1.0361,1.0362,0,0,0,0,0,1.0086,1.0105,1.0109,1.0117,1.0162,1.0192,1.0197,1.0213,1.0211,1.0221,1.0238,1.0243,1.0298,1.029,1.0297,1.0308,1.0362,1.0364,1.0365,1.0359,1.0361,1.0362,0,0,0,0,0,0,1.0074,1.0109,1.0114,1.0143,1.0165,1.0194,1.0207,1.0214,1.0236,1.0236,1.0254,1.026,1.0286,1.03,1.029,1.0334,1.0331,1.0333,1.0324,1.0325,1.0326,1.0322,1.0295,0,0,0,0,0,1.0075,1.0097,1.0126,1.0148,1.0159,1.0181,1.0195,1.0205,1.0228,1.0236,1.0255,1.0276,1.0299,1.0313,1.0334,1.0362,1.0368,1.0373,1.0374,1.0375,1.0377,1.0393,1.0395,1.037,1.037,1.037,0,0,1.0077,1.0099,1.0111,1.0147,1.0164,1.0186,1.0189,1.0211,1.0228,1.024,1.0267,1.0282,1.0306,1.0334,1.0347,1.0346,1.0385,1.0376,1.0377,1.0378,1.0394,1.0397,1.0399,1.0371,1.037,1.037,0,0,1.0091,1.011,1.0131,1.0149,1.0176,1.0191,1.0196,1.0225,1.0235,1.0263,1.0273,1.0292,1.033,1.0347,1.0361,1.0383,1.0389,1.0389,1.0395,1.041,1.0412,1.0414,1.0422,1.0425,1.0391,1.0391,1.0391,0,1.009,1.0123,1.0141,1.0163,1.0179,1.0192,1.0213,1.023,1.0262,1.0272,1.0271,1.0319,1.0337,1.0369,1.0374,1.0385,1.0391,1.0386,1.041,1.0413,1.0415,1.0422,1.0425,1.0391,1.0391,1.0391,1.0391,0,1.012,1.0144,1.0157,1.019,1.0207,1.0228,1.0249,1.0264,1.0273,1.0288,1.0316,1.0338,1.0365,1.0373,1.0382,1.0407,1.0405,1.0407,1.0404,1.0417,1.0424,1.0428,1.0391,1.0391,1.0391,1.0391,0,0,1.0128,1.017,1.0175,1.019,1.0221,1.0239,1.0262,1.0289,1.0301,1.0323,1.0343,1.0375,1.0377,1.0393,1.0403,1.0417,1.0433,1.0417,1.0418,1.042,1.0463,1.0462,1.0465,1.0438,1.0438,1.0439,1.0461,0,1.0146,1.0188,1.0205,1.0238,1.026,1.0273,1.0292,1.0314,1.0328,1.0348,1.0364,1.0387,1.0388,1.0397,1.0411,1.0428,1.0442,1.0427,1.0456,1.0457,1.0449,1.0469,1.0467,1.0487,1.0464,1.0465,1.0465,0,1.0173,1.0197,1.0233,1.0262,1.0272,1.0289,1.0316,1.0335,1.0359,1.0369,1.0387,1.0397,1.0421,1.0417,1.045,1.0439,1.0452,1.0462,1.0463,1.0467,1.0461,1.0473,1.0494,1.0497,1.047,1.0469,1.0469,0,1.0176,1.0216,1.0243,1.0256,1.029,1.0302,1.0317,1.0341,1.0356,1.0379,1.0389,1.0414,1.0428,1.0447,1.0464,1.0459,1.0496,1.0493,1.0504,1.0504,1.0512,1.0511,1.0535,1.0519,1.0519,1.0519,1.0519,0,1.0195,1.0216,1.0245,1.0261,1.0286,1.0305,1.0328,1.0344,1.0365,1.0385,1.0397,1.0415,1.0436,1.0457,1.047,1.0496,1.0502,1.0511,1.0514,1.051,1.0509,1.0518,1.0517,1.052,1.052,1.052,1.052,0,1.0201,1.0222,1.0252,1.0283,1.0291,1.0308,1.0334,1.035,1.0366,1.039,1.0397,1.0421,1.0446,1.0465,1.0497,1.0506,1.0534,1.0537,1.0526,1.0528,1.0538,1.0537,1.057,1.0575,1.0556,1.0556,1.0556,0,1.0212,1.0229,1.0262,1.0277,1.0292,1.0315,1.0331,1.035,1.0366,1.0396,1.0409,1.0435,1.0457,1.0496,1.0516,1.0541,1.0545,1.0555,1.0549,1.0545,1.0546,1.0545,1.0547,1.0556,1.0556,1.0556,1.0556,0,1.0229,1.0239,1.0262,1.0289,1.0308,1.0329,1.0351,1.0362,1.0385,1.0403,1.0429,1.0446,1.048,1.0506,1.0533,1.0548,1.0556,1.0558,1.0562,1.0558,1.0551,1.0555,1.0528,1.0557,1.0557,1.0557,1.0557,1.0557,1.0239,1.0255,1.0281,1.0306,1.0325,1.0345,1.0363,1.0381,1.0403,1.0433,1.0442,1.047,1.0494,1.0531,1.0547,1.0568,1.0568,1.0574,1.0575,1.0577,1.0577,1.0547,1.0573,1.0573,1.0573,1.0573,1.0573,0,1.0257,1.0274,1.0298,1.0329,1.0349,1.0355,1.038,1.0396,1.042,1.0443,1.0464,1.0495,1.052,1.0543,1.0569,1.0582,1.0586,1.0588,1.0588,1.0591,1.0575,1.0569,1.0585,1.0585,1.0585,1.0585,1.0585,1.0584,1.0269,1.0296,1.0309,1.0346,1.0363,1.0391,1.0404,1.0423,1.0441,1.0475,1.0497,1.0512,1.0534,1.0562,1.0586,1.0592,1.0601,1.0602,1.0609,1.0594,1.0592,1.0591,1.0585,1.0604,1.0604,1.0624,1.0624,1.0624]}]]